CAPE
0 0 0 0 0 0 0 0 0 0 0 0 0 0 0 0 0 0 0 0 0 0 0 0 0 0 0 0 0 0 0 0 0 0 0 0 0 0 0 0 0 0 0 0 0
0 0 0 0 0 0 0 0 0 0 0 0 0 0 0 0 0 0 0 0 0 0 0 0 0 0 0 0 0 0 0 0 0 0 0 0 0 0 0 0 0 0 0 0 0
0 0 0 0 0 0 0 0 0 0 0 0 0 0 0 0 0 0 0 0 0 0 0 0 0 0 0 0 0 0 0 0 0 0 0 0 0 0 0 0 0 0 0 0 0
0 0 0 0 0 0 0 0 0 0 0 0 0 0 0 0 0 0 0 0 0 0 0 0 0 0 0 0 0 0 0 0 0 0 0 0 0 0 0 0 0 0 0 0 0
0 0 0 0 0 0 0 0 0 0 0 0 0 0 0 0 0 0 0 0 0 0 0 0 0 0 0 0 0 0 0 0 0 0 0 0 0 0 0 0 0 0 0 0 0
0 0 0 0 0 0 0 0 0 0 0 0 0 0 0 0 0 0 0 0 0 0 0 0 0 0 0 0 0 0 0 0 0 0 0 0 0 0 0 0 0 0 0 0 0
0 0 0 0 0 0 0 0 0 0 0 0 0 0 0 0 0 0 0 0 0 0 0 0 0 0 0 0 0 0 0 0 0 0 0 0 0 0 0 0 0 0 0 0 0
0 0 0 0 0 0 0 0 0 0 0 0 0 0 0 0 0 0 0 0 0 0 0 0 0 0 0 0 0 0 0 0 0 0 0 0 0 0 0 0 0 0 0 0 0
0 0 0 0 0 0 0 0 0 0 0 0 0 0 0 0 0 0 0 0 0 0 0 0 0 0 0 0 0 0 0 0 0 0 0 0 0 0 0 0 0 0 0 0 0
0 0 0 0 0 0 0 0 0 0 0 0 0 0 0 0 0 0 0 0 0 0 0 0 0 0 0 0 0 0 0 0 0 0 0 0 0 0 0 0 0 0 0 0 0
0 0 0 0 0 0 0 0 0 0 0 0 0 0 0 0 0 0 0 0 0 0 0 0 0 0 0 0 0 0 0 0 0 0 0 0 0 0 0 0 0 0 0 0 0
0 0 0 0 0 0 0 0 0 0 0 0 0 0 0 0 0 0 0 0 0 0 0 0 0 0 0 0 0 0 0 0 0 0 0 0 0 0 0 0 0 0 0 0 0
0 0 0 0 0 0 0 0 0 0 0 0 0 0 0 0 0 0 0 0 0 0 0 0 0 0 0 0 0 0 0 0 0 0 0 0 0 0 0 0 0 0 0 0 0
0 0 0 0 0 0 0 0 0 0 0 0 0 0 0 0 0 0 0 0 0 0 0 0 0 0 0 0 0 0 0 0 0 0 0 0 0 0 0 0 0 0 0 0 0
0 0 0 0 0 0 0 0 0 0 0 0 0 0 0 0 0 0 0 0 0 0 0 0 0 0 0 0 0 0 0 0 0 0 0 0 0 0 0 0 0 0 0 0 0
0 0 0 0 0 0 0 0 0 0 0 0 0 0 0 0 0 0 0 0 0 0 0 0 0 0 0 0 0 0 0 0 0 0 0 0 0 0 0 0 0 0 0 2 9
0 0 0 0 0 0 0 0 0 0 0 0 0 0 0 0 0 0 0 0 0 0 0 0 0 0 0 0 0 0 0 0 0 0 0 0 0 0 0 0 0 0 0 8 11
0 0 0 0 0 0 0 0 0 0 0 0 0 0 0 0 0 0 0 0 0 0 0 0 0 0 0 0 0 0 0 0 0 0 0 0 0 0 0 0 0 0 6 13 0
0 0 0 0 0 0 0 0 0 0 0 0 0 0 0 0 0 0 0 0 0 0 0 0 0 0 0 0 0 0 0 0 0 0 0 0 0 0 0 0 0 14 42 35 15
0 0 0 0 0 0 0 0 0 0 0 0 0 0 0 0 0 0 0 0 0 0 0 0 0 0 0 0 0 0 0 0 14 1 0 0 0 0 19 15 33 44 58 47 47
0 0 0 0 0 0 0 0 0 0 0 0 0 0 0 0 0 0 0 0 0 0 0 0 0 0 0 0 0 0 8 16 15 13 14 4 0 0 38 55 59 96 107 88 92
0 0 0 0 0 0 0 0 0 0 0 0 0 0 0 0 0 0 0 0 0 0 0 0 0 0 0 0 0 0 0 8 23 0 23 34 0 1 46 44 11 87 88 108 122
0 0 0 0 0 0 0 0 0 0 0 0 0 0 0 0 0 0 0 0 0 0 0 0 0 0 0 0 0 4 17 31 27 45 3 33 0 46 62 42 63 92 98 70 35
0 0 0 0 0 0 0 0 0 0 0 0 0 0 0 0 0 0 0 0 0 0 0 0 0 0 0 0 3 1 4 20 57 23 16 26 43 48 53 41 94 73 11 9 10
0 0 0 0 0 0 0 0 0 0 0 0 0 0 0 0 0 0 0 0 0 0 0 0 0 0 1 0 0 9 13 22 50 53 42 18 30 43 35 90 62 3 8 5 3
0 0 0 0 0 0 0 0 0 0 0 0 0 0 0 0 0 0 0 0 0 0 0 0 0 0 0 2 10 12 16 27 39 35 31 19 19 28 25 58 7 2 9 10 4
0 0 0 0 0 0 0 0 0 0 0 0 0 0 0 0 0 0 0 0 0 0 0 0 1 9 2 3 5 0 8 1 0 8 17 8 23 35 24 3 8 11 16 21 9
CIN
0 0 0 0 0 0 0 0 0 0 0 0 0 0 0 0 0 0 0 0 0 0 0 0 0 0 0 0 0 0 0 0 0 0 0 0 0 0 0 0 0 0 0 0 0
0 0 0 0 0 0 0 0 0 0 0 0 0 0 0 0 0 0 0 0 0 0 0 0 0 0 0 0 0 0 0 0 0 0 0 0 0 0 0 0 0 0 0 0 0
0 0 0 0 0 0 0 0 0 0 0 0 0 0 0 0 0 0 0 0 0 0 0 0 0 0 0 0 0 0 0 0 0 0 0 0 0 0 0 0 0 0 0 0 0
0 0 0 0 0 0 0 0 0 0 0 0 0 0 0 0 0 0 0 0 0 0 0 0 0 0 0 0 0 0 0 0 0 0 0 0 0 0 0 0 0 0 0 0 0
0 0 0 0 0 0 0 0 0 0 0 0 0 0 0 0 0 0 0 0 0 0 0 0 0 0 0 0 0 0 0 0 0 0 0 0 0 0 0 0 0 0 0 0 0
0 0 0 0 0 0 0 0 0 0 0 0 0 0 0 0 0 0 0 0 0 0 0 0 0 0 0 0 0 0 0 0 0 0 0 0 0 0 0 0 0 0 0 0 0
0 0 0 0 0 0 0 0 0 0 0 0 0 0 0 0 0 0 0 0 0 0 0 0 0 0 0 0 0 0 0 0 0 0 0 0 0 0 0 0 0 0 0 0 0
0 0 0 0 0 0 0 0 0 0 0 0 0 0 0 0 0 0 0 0 0 0 0 0 0 0 0 0 0 0 0 0 0 0 0 0 0 0 0 0 0 0 0 0 0
0 0 0 0 0 0 0 0 0 0 0 0 0 0 0 0 0 0 0 0 0 0 0 0 0 0 0 0 0 0 0 0 0 0 0 0 0 0 0 0 0 0 0 0 0
0 0 0 0 0 0 0 0 0 0 0 0 0 0 0 0 0 0 0 0 0 0 0 0 0 0 0 0 0 0 0 0 0 0 0 0 0 0 0 0 0 0 0 0 0
0 0 0 0 0 0 0 0 0 0 0 0 0 0 0 0 0 0 0 0 0 0 0 0 0 0 0 0 0 0 0 0 0 0 0 0 0 0 0 0 0 0 0 0 0
0 0 0 0 0 0 0 0 0 0 0 0 0 0 0 0 0 0 0 0 0 0 0 0 0 0 0 0 0 0 0 0 0 0 0 0 0 0 0 0 0 0 0 0 0
0 0 0 0 0 0 0 0 0 0 0 0 0 0 0 0 0 0 0 0 0 0 0 0 0 0 0 0 0 0 0 0 0 0 0 0 0 0 0 0 0 0 0 0 0
0 0 0 0 0 0 0 0 0 0 0 0 0 0 0 0 0 0 0 0 0 0 0 0 0 0 0 0 0 0 0 0 0 0 0 0 0 0 0 0 0 0 0 0 0
0 0 0 0 0 0 0 0 0 0 0 0 0 0 0 0 0 0 0 0 0 0 0 0 0 0 0 0 0 0 0 0 0 0 0 0 0 0 0 0 0 0 0 0 0
0 0 0 0 0 0 0 0 0 0 0 0 0 0 0 0 0 0 0 0 0 0 0 0 0 0 0 0 0 0 0 0 0 0 0 0 0 0 0 0 0 0 0 -3 -2
0 0 0 0 0 0 0 0 0 0 0 0 0 0 0 0 0 0 0 0 0 0 0 0 0 0 0 0 0 0 0 0 0 0 0 0 0 0 0 0 0 0 0 -3 -5
0 0 0 0 0 0 0 0 0 0 0 0 0 0 0 0 0 0 0 0 0 0 0 0 0 0 0 0 0 0 0 0 0 0 0 0 0 0 0 0 0 0 -28 -10 0
0 0 0 0 0 0 0 0 0 0 0 0 0 0 0 0 0 0 0 0 0 0 0 0 0 0 0 0 0 0 0 0 0 0 0 0 0 -2 -2 -2 -1 -5 -4 -5 -4
0 0 0 0 0 0 0 0 0 0 0 0 0 0 0 0 0 0 0 0 0 0 0 0 0 0 0 0 0 0 0 -1 -3 -1 0 0 0 0 -8 -9 -9 -6 -5 -5 -6
0 0 0 0 0 0 0 0 0 0 0 0 0 0 0 0 0 0 0 0 0 0 0 0 0 0 0 0 0 0 -5 -3 -4 -3 -2 -3 0 -2 -7 -8 -8 -4 -3 -6 -6
0 0 0 0 0 0 0 0 0 0 0 0 0 0 0 0 0 0 0 0 0 0 0 0 0 0 0 0 0 0 0 -2 -3 0 -5 -5 0 -11 -9 -23 -35 -2 -3 -4 -3
0 0 0 0 0 0 0 0 0 0 0 0 0 0 0 0 0 0 0 0 0 0 0 0 0 0 0 0 0 -1 -3 -5 -6 -4 -1 -1 0 -5 -7 -34 -9 -7 -2 -3 -4
0 0 0 0 0 0 0 0 0 0 0 0 0 0 0 0 0 0 0 0 0 0 0 0 0 0 0 0 -3 -4 -2 -3 -3 -4 -3 -3 -5 -3 -7 -15 -4 -4 -8 -5 -7
0 0 0 0 0 0 0 0 0 0 0 0 0 0 0 0 0 0 0 0 0 0 0 0 0 -1 -1 0 0 -4 -3 -4 -4 -4 -8 -7 -5 -5 -9 -5 -6 -6 -1 -2 -3
0 0 0 0 0 0 0 0 0 0 0 0 0 0 0 0 0 0 0 0 0 0 0 0 0 0 0 -2 -4 -4 -5 -8 -3 -5 -3 -3 -3 -5 -7 -5 -4 -2 -2 -3 -3
0 0 0 0 0 0 0 0 0 0 0 0 0 0 0 0 0 0 0 0 0 0 0 0 -1 -2 -2 -3 -4 -2 -9 -5 -2 -4 -3 -8 -5 -5 -3 -1 -1 -1 -2 -2 -4
Wind_Speed
11 11 10 10 10 10 10 12 13 14 13 11 10 9 9 9 11 8 14 13 16 18 16 14 13 13 13 13 14 14 13 11 12 11 14 16 18 17 16 16 16 15 17 19 20
11 10 10 10 9 9 11 13 14 13 12 11 12 12 11 13 18 17 11 12 14 15 16 14 14 13 14 15 16 16 13 14 15 15 18 19 20 20 17 16 15 15 16 16 17
12 11 10 9 9 9 11 13 14 13 11 10 12 12 13 14 14 14 8 8 9 11 14 13 14 14 15 16 16 17 13 12 14 17 20 20 20 20 18 17 17 19 20 20 20
13 12 10 9 8 9 11 13 13 12 11 9 10 13 14 15 19 10 9 8 8 8 18 17 15 16 16 16 16 15 16 16 17 17 18 18 18 17 18 17 18 20 21 23 24
13 11 9 8 9 10 11 11 12 12 10 9 9 11 16 19 17 11 10 1 19 20 20 19 17 17 17 16 16 17 17 17 16 17 17 14 17 20 16 17 19 20 21 24 26
12 10 9 9 9 10 11 12 12 12 11 10 10 11 17 18 12 11 12 18 20 22 23 22 20 19 18 17 19 19 18 16 18 19 18 18 21 19 18 18 22 22 25 26 27
12 11 10 10 11 12 13 14 14 13 13 13 14 12 17 16 14 14 16 19 21 22 24 22 20 19 17 17 18 18 17 16 17 21 20 22 24 19 18 22 22 23 27 29 30
14 13 12 12 12 13 15 16 16 14 13 16 16 13 15 14 15 16 17 18 19 21 22 21 20 21 20 18 17 19 18 22 20 23 18 24 29 19 21 23 26 29 29 29 30
16 15 14 14 14 15 16 15 12 12 13 15 14 12 13 14 15 16 17 18 18 18 19 19 18 20 18 19 18 20 25 26 26 20 23 23 29 25 26 28 31 32 31 28 27
18 17 16 16 16 17 16 15 15 13 13 14 13 12 11 13 15 16 17 16 16 15 13 17 17 16 19 24 26 26 26 26 26 25 27 28 29 29 31 30 33 34 32 27 25
20 19 18 17 17 17 15 14 13 13 12 13 12 13 12 14 14 16 18 16 15 14 17 17 17 20 23 21 22 24 26 27 26 28 26 28 31 32 32 33 30 28 25 22 23
22 21 19 18 18 16 15 15 16 15 13 14 12 11 12 14 13 18 18 18 17 18 17 15 18 19 20 21 22 25 27 27 28 22 30 34 37 33 27 26 27 25 22 20 20
23 21 18 17 15 15 16 17 17 13 13 13 12 13 14 12 16 19 23 21 19 19 17 19 19 20 20 21 23 25 27 27 31 30 28 32 34 25 19 22 22 21 23 22 20
22 19 15 14 13 13 16 19 16 12 11 10 10 14 15 13 14 21 23 22 18 22 24 18 20 20 20 22 22 28 26 26 28 32 36 32 40 27 19 23 23 26 23 18 16
21 18 14 14 14 14 17 19 14 12 14 12 12 13 15 15 19 21 22 22 25 24 20 23 23 24 23 25 22 26 25 27 28 31 32 28 23 21 21 26 24 23 17 16 16
22 18 16 15 16 17 19 15 12 13 16 12 12 13 13 17 18 24 25 23 22 22 21 21 21 20 22 21 22 25 26 27 24 23 27 24 22 31 27 28 24 19 17 16 18
21 20 18 17 18 20 16 12 13 15 13 13 13 16 17 19 20 24 28 28 27 28 26 29 20 18 19 22 24 22 29 31 28 25 31 23 28 27 29 24 24 21 19 18 19
20 20 20 21 20 20 13 13 15 16 15 14 15 15 15 20 20 26 28 27 23 28 29 28 25 23 20 25 31 25 23 25 32 34 37 34 31 27 24 22 21 18 18 17 24
19 19 21 24 21 18 13 15 17 16 16 16 16 15 15 18 23 25 28 24 24 25 28 31 25 22 24 26 19 22 22 22 28 28 31 28 26 22 20 23 21 21 19 23 28
16 18 23 26 22 17 15 17 16 16 17 15 16 17 19 22 23 26 25 20 26 21 24 27 33 26 24 22 16 16 22 24 22 32 37 31 40 37 24 23 21 27 24 31 28
17 16 24 26 18 17 18 18 16 18 20 18 18 18 19 23 22 26 23 24 21 22 24 27 26 26 25 23 24 20 21 20 25 27 35 40 32 31 34 33 32 25 29 37 37
20 17 27 22 19 19 19 19 19 20 20 18 17 18 19 21 23 23 22 21 21 23 28 26 26 30 28 24 22 21 23 25 27 33 31 33 35 33 35 31 38 32 39 33 35
21 21 24 21 20 21 19 18 19 20 20 19 18 19 19 21 23 20 21 21 23 23 23 25 25 35 32 19 21 22 24 25 28 32 34 38 38 32 35 26 38 36 34 38 42
22 20 22 23 21 22 21 20 20 19 18 19 19 19 20 20 18 22 24 23 21 20 24 22 22 21 28 31 34 35 34 32 32 34 37 36 40 40 41 39 37 41 41 41 44
24 22 21 22 22 22 21 20 21 21 18 19 18 20 22 24 26 22 21 23 23 21 19 21 26 25 26 30 34 34 35 34 35 35 38 39 35 33 37 37 38 36 41 45 48
22 22 20 19 19 21 20 21 20 21 20 19 19 20 22 23 21 25 25 24 23 21 22 25 29 30 31 30 32 37 35 33 31 32 34 34 36 35 40 40 39 42 45 51 52
22 21 20 19 20 20 20 21 20 21 17 17 20 23 22 22 21 18 19 19 20 23 27 26 27 33 35 34 38 39 27 31 33 29 29 32 35 46 42 39 41 48 50 53 50
Wind_Direction
278 275 265 262 254 251 228 201 187 175 172 182 202 225 232 226 203 333 351 309 312 314 330 2 13 3 356 342 329 316 317 318 319 317 320 320 316 327 324 318 323 320 314 311 314
284 268 260 253 243 229 204 189 178 173 175 179 185 191 200 193 33 11 311 291 299 309 336 348 360 8 350 339 328 314 317 316 316 318 314 314 311 315 315 318 321 322 328 328 323
290 274 262 250 235 216 196 185 180 178 180 183 191 192 187 181 79 349 258 263 273 280 316 357 6 353 347 348 339 338 336 338 330 322 318 317 314 314 311 310 313 311 316 320 319
299 290 275 261 238 215 199 193 189 185 189 200 209 208 206 177 73 285 253 249 259 229 353 55 14 359 350 353 352 347 341 335 333 331 326 322 322 320 314 315 317 315 313 310 310
303 290 276 258 234 218 212 211 208 206 213 230 241 231 175 54 40 304 223 250 356 357 358 4 6 2 357 3 1 349 346 344 343 339 334 334 329 320 316 319 318 315 313 310 309
304 288 268 253 241 230 227 224 222 221 228 250 262 236 85 41 330 287 297 1 1 11 14 13 13 16 5 3 346 348 347 347 346 339 333 323 322 322 319 319 315 312 311 311 310
302 287 269 257 251 243 237 228 220 221 233 262 278 297 33 34 4 308 348 8 27 22 16 29 33 23 24 11 7 356 347 348 342 336 331 328 315 315 321 321 316 312 309 308 307
302 290 276 268 264 258 250 235 209 187 276 285 286 328 28 23 340 49 18 29 37 30 30 35 38 28 15 17 11 356 355 339 341 334 336 328 312 321 326 317 313 310 309 308 308
302 290 281 277 276 275 274 296 51 48 50 16 23 28 37 26 29 20 17 17 33 41 37 40 33 17 23 9 8 2 341 337 336 344 335 329 317 319 317 314 311 309 308 310 312
304 292 285 284 287 296 332 6 23 32 34 32 26 42 36 16 13 16 15 29 31 37 42 28 24 24 18 2 344 345 343 341 336 337 331 323 316 317 314 313 310 309 307 308 311
303 295 288 289 298 321 7 19 37 38 33 10 19 8 19 4 12 13 9 25 31 32 15 19 12 1 360 1 354 347 340 336 337 337 333 327 320 317 315 313 315 317 316 314 314
303 298 294 300 313 341 4 7 10 5 26 11 9 12 7 359 2 351 2 9 11 3 13 14 359 0 357 352 348 342 335 334 336 344 333 325 317 317 318 319 320 322 322 320 321
306 300 302 312 339 0 5 4 1 28 31 25 18 9 4 9 343 340 337 354 2 360 1 353 350 355 351 347 342 340 335 333 331 332 331 326 322 328 328 327 327 328 324 320 318
315 317 323 335 11 11 4 353 11 42 25 23 21 2 360 2 348 338 341 350 359 350 350 351 355 352 348 342 345 337 344 337 332 329 324 330 316 326 327 326 324 324 324 324 324
325 337 353 357 13 9 355 353 29 36 355 18 4 359 357 349 335 339 346 348 340 342 350 347 346 346 343 344 347 338 342 334 329 326 324 325 323 344 335 326 327 330 329 327 324
343 2 5 11 12 5 352 12 31 1 343 14 9 351 350 344 342 336 340 350 347 345 347 344 349 347 348 349 347 342 336 332 332 332 327 333 324 327 329 330 333 332 331 329 328
348 3 10 7 359 352 9 34 6 348 13 6 1 346 343 339 340 339 336 338 341 339 339 339 348 357 354 346 344 342 340 335 332 327 326 336 323 318 324 330 327 323 324 326 328
336 5 10 357 348 351 34 25 357 2 1 3 357 355 351 344 343 337 337 336 345 342 338 341 340 349 354 342 335 335 339 333 327 326 322 323 319 333 342 339 336 331 328 328 327
5 25 7 332 344 357 26 3 358 2 0 355 355 353 353 349 343 341 338 340 343 346 342 337 338 345 337 338 345 347 336 340 327 322 320 325 324 325 325 330 331 323 325 320 319
23 14 354 326 351 7 5 356 0 2 358 360 353 352 344 343 344 341 342 348 342 347 348 341 331 339 345 345 337 337 342 334 334 328 322 324 322 323 333 335 332 326 322 325 320
17 14 349 340 13 6 349 351 358 354 350 353 348 345 344 341 343 341 343 343 349 346 345 340 337 339 339 339 337 337 331 327 325 319 314 317 321 336 331 325 320 322 325 317 312
8 7 345 4 4 360 352 349 347 344 350 353 354 352 349 347 343 343 343 348 350 346 338 342 337 331 329 330 334 330 325 322 315 317 309 310 300 323 326 332 315 324 322 318 315
1 358 4 9 4 1 358 354 350 349 352 356 356 356 355 347 345 349 347 351 348 342 347 348 343 335 339 353 351 341 336 327 317 314 306 307 308 323 322 318 313 316 322 316 312
360 356 360 11 12 3 359 358 356 2 3 360 356 357 354 352 351 346 342 347 354 351 344 340 333 325 324 326 328 323 322 321 316 312 311 305 311 318 320 320 320 315 313 314 312
355 357 3 350 357 1 6 3 358 358 4 359 358 359 355 347 342 341 350 348 346 350 353 347 331 328 324 325 325 323 324 324 319 316 313 316 316 323 325 324 320 319 315 309 308
357 357 2 359 2 358 1 359 359 359 359 359 355 354 349 345 343 339 343 346 346 348 349 341 332 333 326 329 328 326 325 324 331 331 326 322 320 323 319 319 318 315 312 306 306
2 2 357 360 2 0 0 1 1 4 9 3 356 349 349 353 352 349 343 338 332 332 333 334 335 335 329 335 332 328 340 334 333 337 338 333 328 315 315 320 320 315 313 306 309